Regional Weather Roundup
Issued by NWS

Home | Current Version | Previous Version | Graphics & Text | Print | Product List | Glossary On
Versions: 1 2 3 4 5 6 7 8 9 10 11 12 13 14 15 16 17 18 19 20 21 22 23 24 25 26 27 28 29 30 31 32 33 34 35 36 37 38 39 40 41 42 43 44 45 46 47 48 49
000
ASUS45 KCYS 021810
RWRWY

WYOMING REGIONAL WEATHER ROUNDUP
NATIONAL WEATHER SERVICE CHEYENNE WY
1100 AM MST MON MAR 02 2015

NOTE:  "FAIR" INDICATES FEW OR NO CLOUDS BELOW 12,000 FEET
WITH NO SIGNIFICANT WEATHER AND/OR OBSTRUCTIONS TO VISIBILITY.

WYZ001-021900-
YELLOWSTONE NATIONAL PARK

CITY           SKY/WX    TMP DP  RH WIND       PRES   REMARKS
LK YELLOWSTONE   N/A     13   1  59 CALM      29.78F
6HR MIN TEMP: -13; 6HR MAX TEMP:  13;

W YELLOWSTONE  NOT AVBL

$$
WYZ002>013-054>058-071-098>099-021900-
NORTHERN WYOMING

CITY           SKY/WX    TMP DP  RH WIND       PRES   REMARKS
JACKSON        SUNNY     14   9  79 CALM      29.82F
CODY           FAIR      36  16  44 SE6       29.77F WCI  31
GREYBULL       FAIR      32  13  45 VRB3      29.84F
6HR MIN TEMP:  11; 6HR MAX TEMP:  32;

WORLAND        FAIR      27  17  66 NE5       29.83F WCI  22
6HR MIN TEMP:  13; 6HR MAX TEMP:  27;

SHERIDAN       FAIR      29  10  45 CALM      29.80F
6HR MIN TEMP:   4; 6HR MAX TEMP:  29;

BUFFALO        FAIR      35  11  36 SE3       29.78F
6HR MIN TEMP:  11; 6HR MAX TEMP:  35;

GILLETTE       FAIR      36  22  56 S12       29.79F WCI  28
6HR MIN TEMP:  16; 6HR MAX TEMP:  36;

HULETT         FAIR      36  23  60 SW12G20   29.81F WCI  27
NEWCASTLE      FAIR      36  19  51 SE9       29.85F WCI  29

$$
WYZ014>020-022>026-101>103-021900-
CENTRAL WYOMING

CITY           SKY/WX    TMP DP  RH WIND       PRES   REMARKS
BIG PINEY      FAIR      29  14  53 NE8       29.78F WCI  21
6HR MIN TEMP:  11; 6HR MAX TEMP:  29;

PINEDALE       CLOUDY    23  14  68 NW3       29.79F
DUBOIS         FAIR      32  14  47 N10       29.72F WCI  24
LANDER         PTSUNNY   19  12  74 E3        29.81F
6HR MIN TEMP:   8; 6HR MAX TEMP:  19;

RIVERTON       FAIR      20  13  74 MISG      29.83F
6HR MIN TEMP:   7; 6HR MAX TEMP:  20;

CASPER         FAIR      36  23  59 S6        29.79F WCI  31
6HR MIN TEMP:  17; 6HR MAX TEMP:  36;

DOUGLAS        PTSUNNY   35  21  56 S9        29.82F WCI  28
6HR MIN TEMP:  24; 6HR MAX TEMP:  36;


$$
WYZ021-027>030-104>119-021900-
SOUTHERN WYOMING

CITY           SKY/WX    TMP DP  RH WIND       PRES   REMARKS
EVANSTON       LGT SNOW  27  23  85 N5        29.75S FOG     WCI  22
6HR MIN TEMP:  23; 6HR MAX TEMP:  27; 6HR PCP:  0.03;

KEMMERER       LGT SNOW  28  23  80 NE10      29.75F WCI  19
FORT BRIDGER   LGT SNOW  26  24  93 N6        29.79F WCI  19
ROCK SPRINGS   SNOW      28  26  92 N5        29.76F VSB 1/4 WCI  23
6HR MIN TEMP:  21; 6HR MAX TEMP:  27; 6HR PCP: TRACE;

DIXON          CLOUDY    35  32  90 E5        29.81F WCI  31
RAWLINS        SNOW      28  24  85 E3        29.80F VSB 1/2
6HR MIN TEMP:  22; 6HR MAX TEMP:  28; 6HR PCP:  0.10;

SARATOGA       LGT SNOW  34  32  93 SE5       29.80F WCI  30
LARAMIE        PTSUNNY   28  24  85 CALM      29.79F
6HR MIN TEMP:  22; 6HR MAX TEMP:  28; 6HR PCP:  0.01;

CHEYENNE       CLOUDY    25  20  81 S8        29.84F HAZE    WCI  16
6HR MIN TEMP:  19; 6HR MAX TEMP:  25;

TORRINGTON     CLOUDY    38  22  52 S10       29.87F WCI  31
6HR MIN TEMP:  27; 6HR MAX TEMP:  38;

PINE BLUFFS    MOCLDY    32  23  69 S12       29.88F WCI  23

$$



USA.gov is the U.S. government's official web portal to all federal, state and local government web resources and services.